LEMUR-2-DJARA (46926 NORAD) Tracking and Keplerian Element Data

This shows tracking and keplerian element data for the satellite.

Feedback or suggestion? Click here.




ElementValue
Catalog46926
NameLEMUR-2-DJARA
Epoch Orbit1148
Epoch Day18.16820867
Epoch Year2021
RAAN3.4815
Inclination51.6441
Eccentricity2.18E-05
Argument of Perigee345.459
Mean Anonmoly14.6394
Mean Motion15.52895208
Decay Rate0.00013164
L11 46926U 98067RW 21018.16820867 .00013164 00000-0 21506-3 0 9999
L22 46926 51.6441 3.4815 0000218 345.4590 14.6394 15.52895208 11488

Live tracking and technical data element details for LEMUR-2-DJARA (NORAD 46926). LEMUR-2-DJARA can be tracked NOW for your location showing map with azimuth and elevation plus other details from your city location.

Track the satellite on the map from your city or location and see movement details for azimuth, elevation, latitude, longitude, range, height, and movement on the map or in text.







IsCatalogInMostPopularTable: catalog: 46926, numindb: 24
Update: records affected: 1



GetName: 46926 LEMUR-2-DJARA

Hit Count: updated at: Mon, 18 Jan 2021 16:06:52 GMT